Voltar ao catálogo

THORAD AGENA D DEB

AtivoPO
NORAD 4935·DEBRIS·🇺🇸 United States

Lançado Apr 8, 1970 de Vandenberg Space Force Base

Loading…

Próximas Passagens

TLE

Source: Space-Track
1 04935U 70025GB  26218.85006170  .00000453  00000-0  41987-3 0  9995
2 04935  99.8608 349.4924 0062816 234.7418 277.8807 13.87362130824063

Acompanhe THORAD AGENA D DEB em tempo real com AllMySat

Download on the App Store